Regional Weather Roundup
Issued by NWS Goodland, KS

Home | Current Version | Previous Version | Text Only | Print | Product List | Glossary On
Versions: 1 2 3 4 5 6 7 8 9 10 11 12 13 14 15 16 17 18 19 20 21 22 23 24 25 26 27 28 29 30 31 32 33 34 35 36 37 38 39 40 41 42 43 44 45 46 47 48 49 50
000
ASUS43 KGLD 010408
RWRGLD

GOODLAND FORECAST AREA HOURLY WEATHER ROUNDUP
NATIONAL WEATHER SERVICE GOODLAND KS
1000 PM MDT SUN APR 30 2017

...OFFICIAL OBSERVATIONS...

CITY           SKY/WX    TMP DP  RH WIND       PRES   REMARKS
GOODLAND KS    CLOUDY    37  28  70 NW14      29.77R
HILL CITY KS   LGT SNOW  34  33  96 NW26G37   29.71R FOG
IMPERIAL NEB   CLOUDY    44  23  43 N15       29.76S
MCCOOK NEB     CLOUDY    35  31  85 NW10      29.72S
AKRON CO       CLOUDY    37  20  50 N13       29.83S
BURLINGTON CO  NOT AVBL
LIMON CO       CLEAR     34  26  72 NW7       29.88R
$$

...UNOFFICIAL OBSERVATIONS...

CITY           SKY/WX    TMP DP  RH WIND       PRES   REMARKS
LENORA KS        N/A     33  32  96 MISG        N/A
TRENTON NEB      N/A     33  32  96 CALM        N/A
KIT CARSON CO    N/A     37  28  69 CALM        N/A
YUMA CO        FAIR      36  27  69 W8        29.82R
$$



USA.gov is the U.S. government's official web portal to all federal, state and local government web resources and services.